| time (UTC) | temp F | wind direction | speed MPH | gust MPH | rain 1hr in | rain 24hr in | rain mn in | humidity % | barometer mb |
| 20260503013040 | 86 | 62 | 0.0 | 0.0 | 0.00 | 0.00 | 0.00 | 26 | 1005.9 |
| 20260503011523 | 86 | 62 | 0.0 | 1.0 | 0.00 | 0.00 | 0.00 | 26 | 1005.9 |
| 20260503010022 | 87 | 62 | 0.0 | 1.0 | 0.00 | 0.00 | 0.00 | 25 | 1005.9 |
| 20260503004503 | 88 | 61 | 0.0 | 1.0 | 0.00 | 0.00 | 0.00 | 25 | 1005.9 |
| 20260503003009 | 88 | 61 | 0.0 | 2.0 | 0.00 | 0.00 | 0.00 | 23 | 1006.0 |
| 20260503001600 | 88 | 61 | 0.0 | 2.0 | 0.00 | 0.00 | 0.00 | 24 | 1006.2 |
| 20260503000043 | 90 | 61 | 0.0 | 1.0 | 0.00 | 0.00 | 0.00 | 22 | 1006.3 |
| 20260502234523 | 91 | 61 | 0.0 | 2.0 | 0.00 | 0.00 | 0.00 | 23 | 1006.4 |
| 20260502233022 | 91 | 61 | 0.0 | 0.0 | 0.00 | 0.00 | 0.00 | 22 | 1006.5 |
| 20260502231505 | 93 | 61 | 0.0 | 2.0 | 0.00 | 0.00 | 0.00 | 20 | 1006.7 |
| 20260502230100 | 93 | 57 | 0.0 | 2.0 | 0.00 | 0.00 | 0.00 | 20 | 1006.9 |
| 20260502224540 | 93 | 59 | 0.0 | 3.0 | 0.00 | 0.00 | 0.00 | 22 | 1007.3 |
| 20260502223038 | 94 | 55 | 0.0 | 2.0 | 0.00 | 0.00 | 0.00 | 19 | 1007.7 |
| 20260502221519 | 94 | 77 | 0.0 | 1.0 | 0.00 | 0.00 | 0.00 | 20 | 1008.0 |
| 20260502220022 | 94 | 78 | 0.0 | 1.0 | 0.00 | 0.00 | 0.00 | 21 | 1008.2 |
| 20260502214557 | 93 | 91 | 0.0 | 2.0 | 0.00 | 0.00 | 0.00 | 21 | 1008.4 |
| 20260502213106 | 93 | 71 | 0.0 | 0.0 | 0.00 | 0.00 | 0.00 | 23 | 1008.6 |
| 20260502211535 | 93 | 71 | 0.0 | 1.0 | 0.00 | 0.00 | 0.00 | 23 | 1008.9 |
| 20260502210034 | 93 | 260 | 0.0 | 1.0 | 0.00 | 0.00 | 0.00 | 23 | 1009.1 |
| 20260502204512 | 92 | 260 | 0.0 | 2.0 | 0.00 | 0.00 | 0.00 | 25 | 1009.3 |
| 20260502203009 | 92 | 260 | 0.0 | 3.0 | 0.00 | 0.00 | 0.00 | 28 | 1009.5 |
| 20260502201551 | 93 | 260 | 0.0 | 1.0 | 0.00 | 0.00 | 0.00 | 30 | 1009.6 |
| 20260502200107 | 91 | 261 | 0.0 | 3.0 | 0.00 | 0.00 | 0.00 | 31 | 1009.8 |
| 20260502194525 | 90 | 261 | 0.0 | 3.0 | 0.00 | 0.00 | 0.00 | 34 | 1009.9 |
| 20260502193024 | 89 | 292 | 0.0 | 1.0 | 0.00 | 0.00 | 0.00 | 36 | 1010.1 |
| 20260502191502 | 88 | 227 | 0.0 | 2.0 | 0.00 | 0.00 | 0.00 | 39 | 1010.2 |
| 20260502190058 | 86 | 5 | 0.0 | 3.0 | 0.00 | 0.00 | 0.00 | 43 | 1010.3 |
| 20260502184537 | 85 | 254 | 0.0 | 4.0 | 0.00 | 0.00 | 0.00 | 44 | 1010.6 |
| 20260502183037 | 84 | 304 | 0.0 | 5.0 | 0.00 | 0.00 | 0.00 | 45 | 1010.7 |
| 20260502181519 | 83 | 348 | 0.0 | 5.0 | 0.00 | 0.00 | 0.00 | 46 | 1010.8 |
| 20260502163100 | 75 | 218 | 1.0 | 3.0 | 0.00 | 0.00 | 0.00 | 56 | 1011.1 |
| 20260502161555 | 74 | 93 | 0.0 | 1.0 | 0.00 | 0.00 | 0.00 | 57 | 1011.2 |
| 20260502151506 | 67 | 93 | 0.0 | 0.0 | 0.00 | 0.00 | 0.00 | 73 | 1010.9 |
| 20260502150106 | 65 | 93 | 0.0 | 0.0 | 0.00 | 0.00 | 0.00 | 78 | 1010.8 |
| 20260502123005 | 56 | 93 | 0.0 | 0.0 | 0.00 | 0.00 | 0.00 | 87 | 1009.1 |
| 20260502121504 | 56 | 93 | 0.0 | 0.0 | 0.00 | 0.00 | 0.00 | 87 | 1009.1 |
| 20260502114548 | 56 | 93 | 0.0 | 0.0 | 0.00 | 0.00 | 0.00 | 86 | 1009.0 |
| 20260502113026 | 57 | 93 | 0.0 | 1.0 | 0.00 | 0.00 | 0.00 | 86 | 1009.0 |
| 20260502111523 | 58 | 93 | 0.0 | 0.0 | 0.00 | 0.00 | 0.00 | 86 | 1009.1 |
| 20260502110005 | 58 | 93 | 0.0 | 0.0 | 0.00 | 0.00 | 0.00 | 86 | 1009.3 |
| 20260502104510 | 58 | 93 | 0.0 | 0.0 | 0.00 | 0.00 | 0.00 | 86 | 1009.2 |
| 20260502103108 | 59 | 93 | 0.0 | 0.0 | 0.00 | 0.00 | 0.00 | 86 | 1009.3 |
| 20260502101550 | 59 | 93 | 0.0 | 0.0 | 0.00 | 0.00 | 0.00 | 86 | 1009.5 |
| 20260502091502 | 61 | 93 | 0.0 | 1.0 | 0.00 | 0.00 | 0.00 | 83 | 1009.9 |
| 20260502080105 | 64 | 93 | 0.0 | 2.0 | 0.00 | 0.00 | 0.00 | 77 | 1010.2 |
| 20260502070025 | 66 | 111 | 0.0 | 2.0 | 0.00 | 0.00 | 0.00 | 69 | 1010.0 |
| 20260502064525 | 67 | 113 | 0.0 | 2.0 | 0.00 | 0.00 | 0.00 | 67 | 1009.9 |
| 20260502063006 | 68 | 91 | 0.0 | 3.0 | 0.00 | 0.00 | 0.00 | 65 | 1009.8 |
| 20260502061506 | 68 | 91 | 0.0 | 2.0 | 0.00 | 0.00 | 0.00 | 63 | 1009.8 |
| 20260502060048 | 68 | 91 | 0.0 | 2.0 | 0.00 | 0.00 | 0.00 | 61 | 1009.8 |
| 20260502054557 | 69 | 91 | 0.0 | 2.0 | 0.00 | 0.00 | 0.00 | 58 | 1009.8 |
| 20260502053032 | 69 | 91 | 0.0 | 2.0 | 0.00 | 0.00 | 0.00 | 56 | 1009.8 |
| 20260502051529 | 70 | 91 | 0.0 | 1.0 | 0.00 | 0.00 | 0.00 | 55 | 1009.8 |
| 20260502050012 | 70 | 91 | 0.0 | 2.0 | 0.00 | 0.00 | 0.00 | 53 | 1009.6 |
| 20260502044510 | 71 | 92 | 0.0 | 2.0 | 0.00 | 0.00 | 0.00 | 52 | 1009.6 |
| 20260502043104 | 72 | 91 | 0.0 | 3.0 | 0.00 | 0.00 | 0.00 | 50 | 1009.5 |
| 20260502041553 | 73 | 92 | 0.0 | 2.0 | 0.00 | 0.00 | 0.00 | 49 | 1009.4 |
| 20260502040035 | 74 | 92 | 0.0 | 1.0 | 0.00 | 0.00 | 0.00 | 47 | 1009.3 |
| 20260502034535 | 75 | 92 | 0.0 | 3.0 | 0.00 | 0.00 | 0.00 | 45 | 1008.9 |
| 20260502033017 | 76 | 92 | 0.0 | 2.0 | 0.00 | 0.00 | 0.00 | 43 | 1008.7 |
| 20260502031516 | 77 | 92 | 0.0 | 2.0 | 0.00 | 0.00 | 0.00 | 43 | 1008.5 |
| 20260502030109 | 78 | 92 | 0.0 | 2.0 | 0.00 | 0.00 | 0.00 | 42 | 1008.5 |
| 20260502024557 | 80 | 92 | 0.0 | 2.0 | 0.00 | 0.00 | 0.00 | 39 | 1008.4 |
| 20260502023040 | 81 | 92 | 0.0 | 4.0 | 0.00 | 0.00 | 0.00 | 37 | 1008.5 |
| 20260502021540 | 82 | 88 | 0.0 | 2.0 | 0.00 | 0.00 | 0.00 | 35 | 1008.4 |
| 20260502020021 | 83 | 89 | 0.0 | 2.0 | 0.00 | 0.00 | 0.00 | 33 | 1008.4 |
| 20260502014522 | 84 | 135 | 0.0 | 5.0 | 0.00 | 0.00 | 0.00 | 31 | 1008.4 |